User: anonymous   Login
Location: Geremba
(10.4250°N, 67.2394°W)
Time: 16:43:43
(UTC+00:00)
Language:

Ariane H10-3 - Orbit

View from above orbital plane
View from above orbital plane
View from above satellite
View from above satellite

Ground track
Ground track

The orbit data is extracted from the following two-line orbital elements,

1 23766U 96002C   24206.58311803  .00001796  00000-0  12199-2 0  9991
2 23766   7.6756 204.1666 6320775 150.9018 267.8324  3.51716344303907
Epoch (UTC): 24 July 2024 13:59:41
Eccentricity: 0.6320775
inclination: 7.6756°
perigee height: 342 km
apogee height: 23430 km
right ascension of ascending node: 204.1666°
argument of perigee: 150.9018°
revolutions per day: 3.51716344
mean anomaly at epoch: 267.8324°
orbit number at epoch: 30390

The dashed part of the orbit path shows where the satellite is in the earth's shadow,  

DLR